Regional Weather Roundup
Issued by NWS

Home | Current Version | Previous Version | Text Only | Print | Product List | Glossary Off
Versions: 1 2 3 4 5 6 7 8 9 10 11 12 13 14 15 16 17 18 19 20 21 22 23 24 25 26 27 28 29 30 31 32 33 34 35 36 37 38 39 40 41 42 43 44 45 46 47 48 49 50

554
ASUS43 KTOP 221508
RWRKS

WEATHER ROUNDUP FOR KANSAS
NATIONAL WEATHER SERVICE GOODLAND KS
1000 AM CDT SAT JUL 22 2017

NOTE:  "FAIR" INDICATES FEW OR NO CLOUDS BELOW 12,000 FEET WITH NO
SIGNIFICANT WEATHER AND/OR OBSTRUCTIONS TO VISIBILITY.

KSZ001>006-013>018-027>032-041>047-221600-
NORTHWEST KANSAS

CITY           SKY/WX    TMP DP  RH WIND       PRES   REMARKS
GOODLAND       MOSUNNY   79  58  48 N13       30.07S
HAYS           SUNNY     87  62  43 N7        29.90R
HILL CITY      SUNNY     86  62  44 N5        29.94R
RUSSELL        SUNNY     87  60  40 SW3       29.87R
$$

KSZ061>065-074>080-084>089-221600-
SOUTHWEST KANSAS

CITY           SKY/WX    TMP DP  RH WIND       PRES   REMARKS
DODGE CITY     SUNNY     84  59  42 SW5       29.96S
ELKHART          N/A     79  50  36 N7          N/A
GARDEN CITY    SUNNY     82  58  43 NW7       29.99R
LIBERAL        SUNNY     82  60  47 N5        30.00S
PRATT          SUNNY     87  61  41 SW14      29.91F
$$

KSZ066>073-081>083-090>101-221600-
SOUTHEAST KANSAS

CITY           SKY/WX    TMP DP  RH WIND       PRES   REMARKS
CHANUTE        MOSUNNY   90  70  51 SW15      29.90F HX  95
COFFEYVILLE    MOSUNNY   89  73  59 S10       29.91F HX  97
HUTCHINSON     SUNNY     92  64  39 SW12      29.87S
MEDICINE LODGE   N/A     90  63  40 SW10      29.89F
NEWTON         SUNNY     91  68  46 SW15      29.88F HX  95
PARSONS        SUNNY     88  72  58 S12       29.92S
WICHITA INTL   MOSUNNY   89  69  51 SW14      29.88S
WICHITA JABRA  SUNNY     89  68  49 SW15      29.88F
WICHITA MCCONL SUNNY     88  68  51 SW13      29.89S
WINFIELD       SUNNY     90  68  48 SW15      29.91S
$$

KSZ007>012-019>026-033>040-048>060-102>105-221600-
NORTHEAST KANSAS

CITY           SKY/WX    TMP DP  RH WIND       PRES   REMARKS
CONCORDIA      SUNNY     87  65  47 N3        29.86R
EMPORIA        SUNNY     87  69  54 SW14      29.87S
LAWRENCE       SUNNY     90  72  55 SW14      29.84S HX  97
MANHATTAN      SUNNY     90  69  50 SW12      29.84S
MARYSVILLE     SUNNY     88  68  51 W5        29.84S
OLATHE IND     SUNNY     88  73  61 SW15      29.87R HX  95
OLATHE EXE     SUNNY     86  73  65 SW12      29.87R
SALINA         SUNNY     93  62  35 W7        29.85F
TOPEKA BILLARD SUNNY     88  74  63 SW9       29.83F HX  96
TOPEKA FORBES  SUNNY     90  73  57 SW15      29.85S HX  98
$$




USA.gov is the U.S. government's official web portal to all federal, state and local government web resources and services.